Weather in Vostochnoe

Russia / Khabarovsk Krai     48°28′56″N   135°15′52″E
temp.,
°C
wind,
m/s
gust,
m/s
humid.,
%
clouds,
%
prec.,
mm/h
press.,
hPa
HPBL,
m
9 december, thu
thu901:00−14ssw129714 0.0 103115
04:00−14ssw229620 0.0 102919
07:00−16sw119734 0.0 102812
10:00−15w11965 0.0 102818
13:00−5w12834 0.0 1027114
16:00−7wnw11915 0.0 102512
19:00−13w11965 0.0 102510
22:00−13wsw009796 0.0 102510
10 december, fri
fri1001:00−12sw1196100 0.0 102410
04:00−10ssw1195100 0.0 102412
07:00−9wsw1195100 0.0 102310
10:00−7w1193100 0.0 102336
13:00−2wnw1289100 0.0 1022112
16:00−2nnw1195100 0.0 102218
19:00−4wnw1197100 0.0 102213
22:00−4wsw1297100 0.0 102231
11 december, sat
sat1101:00−4nw1298100 0.8 102253
04:00−4nw1298100 1.5 102258
07:00−5nw1298100 0.8 102339
10:00−6nnw119695 0.8 102460
13:00−4w129298 0.1 1023278
16:00−4w1295100 0.2 1022206
19:00−7w1297100 0.2 102237
22:00−9wsw1198100 0.3 102018
12 december, sun
sun1201:00−11ssw1197100 0.1 101910
04:00−11wsw0097100 0.1 101710
07:00−11w1196100 0.0 101518
10:00−9w1291100 0.0 101494
13:00−7w3585100 0.0 1012306
16:00−8w3793100 0.1 1011376
19:00−12wsw479591 0.1 1011204
22:00−16ssw369694 0.1 1010109
13 december, mon
mon1301:00−14ssw3796100 0.2 1009265
04:00−13wsw51093100 0.5 1008399
07:00−15wsw6128726 0.1 1008343
10:00−16wsw613875 0.1 1008354
13:00−13wsw814845 0.0 1008551
16:00−13wsw8158522 0.0 1008565
19:00−14wsw7138645 0.0 1010394
22:00−16sw611875 0.0 1012262